{"data":{"norad_id":47676,"intl_designator":"2021-012BJ","name":"STARLINK-2083","alt_names":[],"object_type":"PAYLOAD","status":"ACTIVE","operator":null,"country":"US","launch_date":"2021-02-16","launch_site_code":"AFETR","launch_vehicle":null,"mission":null,"orbit_class":"UNKNOWN","rcs_meters":null,"size_class":null,"mass_kg":null,"dimensions":null,"purposes":["comms"],"wikipedia_slug":null,"has_3d_model":false,"image_url":null,"decayed_at":null,"tle_current":{"epoch":"2026-05-25T05:17:49.475328Z","epoch_age_seconds":66364,"freshness":"FRESH","line1":"1 47676U 21012BJ  26145.22071152  .00124881  00000+0  82758-3 0  9990","line2":"2 47676  53.0436 265.2967 0005332 321.7774  38.2865 15.74636825294064","mean_motion":15.74636825,"eccentricity":0.0005332,"inclination_deg":53.0436,"raan_deg":265.2967,"arg_perigee_deg":321.7774,"mean_anomaly_deg":38.2865,"bstar":0.00082758,"rev_number":29406,"period_min":91.44965855857,"perigee_km":342.07970554522,"apogee_km":349.24996782386,"semimajor_km":6723.8018366845,"source":"CELESTRAK","updated_at":"2026-05-25T13:38:16.563749Z"}}}